Погода в Дургене

Россия / Республика Тыва     51°08′48″N   94°30′08″E
темп.,
°C
ветер,
м/с
пор.,
м/с
влажн.,
%
обл.,
%
осадки,
мм/ч
давл.,
гПа
погр.,
м
2 марта, вт
вт201:00−21с119599 0.0 102320
04:00−21ссз129656 0.0 102220
07:00−20с119678 0.0 102220
10:00−15ссв1194100 0.0 101964
13:00−13ссз559897 0.0 1017205
16:00−9с2292100 0.4 1016126
19:00−13в1197100 0.4 101920
22:00−9вюв2290100 0.1 101933
3 марта, ср
ср301:00−13ссз1298100 0.1 101822
04:00−13с1198100 0.0 101720
07:00−12з0196100 0.3 101620
10:00−10всв0094100 0.8 101796
13:00−7с2293100 0.9 1016229
16:00−7ссв1193100 0.0 1017133
19:00−10ю1196100 0.0 101921
22:00−11ююв0094100 0.0 102221
4 марта, чт
чт401:00−13вюв019696 0.0 102421
04:00−15юв019794 0.0 102620
07:00−16всв019495 0.0 103020
10:00−13св119789 0.0 103064
13:00−10ссв119392 0.0 1030187
16:00−10св119493 0.0 102995
19:00−16зсз019967 0.0 103220
22:00−17вюв118511 0.0 103321
5 марта, пт
пт501:00−18всв11835 0.0 103420
04:00−19св11900 0.0 103320
07:00−19св11878 0.0 103420
10:00−15ссв228851 0.0 103170
13:00−12св338755 0.0 1028190
16:00−11с229449 0.0 1025101
19:00−13сз238975 0.0 102721
22:00−12сз1293100 0.2 103128
6 марта, сб
сб601:00−13ссв118192 0.2 103421
04:00−18всв11950 0.0 103520
07:00−19с11960 0.0 103620
10:00−16с119838 0.0 103458
13:00−12с219462 0.0 1030135
16:00−11с229559 0.0 102798
19:00−15сз119874 0.0 102820
22:00−17ссв119575 0.0 102821